VK4BLP-5 Weather Reports


time (UTC)temp
F
wind
direction
speed
knots
gust
knots
rain 1hr
in
rain 24hr
in
rain mn
in
humidity
%
barometer
mb
20260505025004 79 86 0.9 4.3 0.00 0.00 0.00 69 1017.2
20260505024005 79 17 1.7 2.6 0.00 0.00 0.00 70 1017.3
20260505023004 80 79 1.7 2.6 0.00 0.00 0.00 70 1017.4
20260505022505 80 98 1.7 2.6 0.00 0.00 0.00 68 1017.5
20260505021504 80 275 1.7 2.6 0.00 0.00 0.00 68 1017.6
20260505015505 80 334 1.7 4.3 0.00 0.00 0.00 67 1018.1
20260505015005 80 50 1.7 4.3 0.00 0.00 0.00 69 1018.1
20260505014004 80 355 0.9 4.3 0.00 0.00 0.00 69 1018.2
20260505013004 79 293 2.6 2.6 0.00 0.00 0.00 68 1018.3
20260505012504 79 342 1.7 4.3 0.00 0.00 0.00 69 1018.5
20260505012004 79 331 2.6 4.3 0.00 0.00 0.00 68 1018.7
20260505011004 79 39 1.7 2.6 0.00 0.00 0.00 71 1018.8
20260505010505 79 287 1.7 2.6 0.00 0.00 0.00 71 1019.0
20260505010005 79 291 1.7 2.6 0.00 0.00 0.00 70 1019.2
20260505004003 79 227 1.7 2.6 0.00 0.00 0.00 73 1019.2
20260505003503 78 73 0.9 2.6 0.00 0.00 0.00 73 1019.3
20260505003003 78 102 1.7 2.6 0.00 0.00 0.00 74 1019.4
20260505002503 78 184 0.9 2.6 0.00 0.00 0.00 74 1019.4
20260505001003 78 202 0.9 2.6 0.00 0.00 0.00 76 1019.7
20260505000003 78 298 0.9 2.6 0.00 0.00 0.00 76 1019.7
20260504235504 78 266 1.7 2.6 0.00 0.00 0.00 78 1019.7
20260504235003 77 326 2.6 2.6 0.00 0.00 0.00 76 1019.7
20260504234004 77 9 0.9 1.7 0.00 0.00 0.00 77 1019.8
20260504233503 77 325 0.9 2.6 0.00 0.00 0.00 79 1019.8
20260504233003 76 117 0.9 2.6 0.00 0.00 0.00 80 1019.8
20260504231505 75 318 1.7 2.6 0.00 0.00 0.00 80 1019.9
20260504230504 76 341 0.0 2.6 0.00 0.00 0.00 81 1019.9
20260504230005 76 262 0.9 1.7 0.00 0.00 0.00 82 1020.1
20260504225503 75 219 0.0 1.7 0.00 0.00 0.00 82 1020.0
20260504224503 74 332 0.0 1.7 0.00 0.00 0.00 84 1020.2
20260504223503 73 191 0.0 1.7 0.00 0.00 0.00 86 1020.1
20260504222503 72 268 0.9 1.7 0.00 0.00 0.00 87 1020.1
20260504222003 72 305 0.0 1.7 0.00 0.00 0.00 89 1020.1
20260504221003 71 256 0.0 1.7 0.00 0.00 0.00 90 1020.1
20260504220503 70 276 0.0 1.7 0.00 0.00 0.00 92 1020.0
20260504220003 69 268 0.0 1.7 0.00 0.00 0.00 93 1020.0
20260504215504 69 355 0.0 1.7 0.00 0.00 0.00 93 1019.9
20260504214503 68 263 0.0 1.7 0.00 0.00 0.00 94 1019.9
20260504214004 67 263 0.0 1.7 0.00 0.00 0.00 96 1019.9
20260504213503 66 263 0.0 0.9 0.00 0.00 0.00 98 1019.9
20260504212503 65 263 0.0 0.0 0.00 0.00 0.00 100 1019.9
20260504212003 64 263 0.0 0.0 0.00 0.00 0.00 100 1020.0
20260504210503 63 263 0.0 0.0 0.00 0.00 0.00 100 1019.9
20260504210004 62 263 0.0 0.0 0.00 0.00 0.00 100 1019.7
20260504205504 62 263 0.0 0.0 0.00 0.00 0.00 100 1019.6
20260504204503 62 263 0.0 0.0 0.00 0.00 0.00 100 1019.5
20260504203503 62 263 0.0 0.0 0.00 0.00 0.00 100 1019.4
20260504202504 62 263 0.0 0.0 0.00 0.00 0.00 100 1019.4
20260504202003 62 263 0.0 0.0 0.00 0.00 0.00 100 1019.4
20260504201504 62 263 0.0 0.0 0.00 0.00 0.00 100 1019.4
20260504200004 62 242 0.0 0.0 0.00 0.00 0.00 100 1019.3
20260504195504 62 242 0.0 0.0 0.00 0.00 0.00 100 1019.1
20260504193504 62 242 0.0 0.0 0.00 0.00 0.00 100 1019.3
20260504193003 62 242 0.0 0.0 0.00 0.00 0.00 100 1019.3
20260504192006 62 242 0.0 0.0 0.00 0.00 0.00 100 1019.0
20260504191503 62 242 0.0 0.0 0.00 0.00 0.00 100 1019.0
20260504190004 62 243 0.0 0.0 0.00 0.00 0.00 100 1019.0
20260504185005 62 243 0.0 0.0 0.00 0.00 0.00 100 1018.9
20260504183504 61 278 0.0 0.0 0.00 0.00 0.00 100 1018.8
20260504183003 61 278 0.0 0.0 0.00 0.00 0.00 100 1018.9
20260504182003 62 278 0.0 0.0 0.00 0.00 0.00 100 1018.8
20260504181503 62 278 0.0 0.0 0.00 0.00 0.00 100 1018.9
20260504180004 62 278 0.0 0.0 0.00 0.00 0.00 100 1018.6
20260504174505 62 278 0.0 0.0 0.00 0.00 0.00 100 1018.5
20260504174003 62 278 0.0 0.0 0.00 0.00 0.00 100 1018.5
20260504173503 63 278 0.0 0.0 0.00 0.00 0.00 100 1018.5
20260504173004 63 278 0.0 0.0 0.00 0.00 0.00 100 1018.6
20260504171503 63 278 0.0 0.0 0.00 0.00 0.00 100 1018.6
20260504151004 69 0 0.0 0.0 0.00 0.00 0.00 94 1019.2
20260504141004 69 0 0.0 0.0 0.00 0.00 0.00 94 1019.6
20260504100504 69 0 0.0 0.0 0.00 0.00 0.00 94 1019.8
20260504082004 71 127 0.9 5.2 0.00 0.00 0.00 89 1019.2
20260504050005 72 0 0.0 0.0 0.00 0.00 0.00 89 1019.0
20260504045004 72 0 0.0 0.0 0.00 0.00 0.00 89 1018.9
20260504043504 72 0 0.0 0.0 0.00 0.00 0.00 89 1018.8
20260504043004 72 0 0.0 0.0 0.00 0.00 0.00 89 1018.8
20260504042005 72 0 0.0 0.0 0.00 0.00 0.00 89 1018.7
20260504041505 72 0 0.0 0.0 0.00 0.00 0.00 89 1018.8
20260504040004 72 0 0.0 0.0 0.00 0.00 0.00 89 1018.9
20260504035504 72 0 0.0 0.0 0.00 0.00 0.00 89 1018.9
20260504035005 72 0 0.0 0.0 0.00 0.00 0.00 89 1018.9
20260504034004 72 0 0.0 0.0 0.00 0.00 0.00 89 1018.9
20260504033504 72 0 0.0 0.0 0.00 0.00 0.00 89 1018.9
20260504033005 72 0 0.0 0.0 0.00 0.00 0.00 89 1019.0
20260504032505 72 0 0.0 0.0 0.00 0.00 0.00 89 1019.0
20260504031505 72 0 0.0 0.0 0.00 0.00 0.00 89 1019.0
20260504030504 72 0 0.0 0.0 0.00 0.00 0.00 89 1019.1
20260504030005 72 0 0.0 0.0 0.00 0.00 0.00 89 1019.1
20260504025504 72 0 0.0 0.0 0.00 0.00 0.00 89 1019.0